Tracking 27371 objects as of 7-Jun-2023
HD Live streaming from Space Station
objects crossing your sky now

LAUNCHERONE R/B

Track LAUNCHERONE R/B now!
10-day predictions


NORAD ID: 51101
Int'l Code: 2022-003H
Perigee: 357.9 km
Apogee: 405.9 km
Inclination: 45.0 °
Period: 92.0 minutes
Semi major axis: 6752 km
RCS: Unknown
Launch date: January 13, 2022
Source: United States (US)
Launch site: Pegasus launched from Western Range Air Space (WRAS)

Note: This is a ROCKET BODY
Your satellite tracking list
Your tracking list is empty




NASA's NSSDC Master Catalog

Two Line Element Set (TLE):
1 51101U 22003H   23157.66941605  .00063045  00000-0  61773-3 0  9995
2 51101  45.0140 221.2575 0035586 345.6099  14.3782 15.64475780 78660
Source of the keplerian elements: AFSPC